Location: Castelbiague
(43.0361°N, 0.9246°E)
Time: 08:21:27
(UTC+00:00)

Cosmos 192 - Pass Details

Date: 17 June 2021
Orbit: 702 x 712 km, 74.0° (Epoch: 03 August)

Event Time Altitude Azimuth Distance (km) Brightness Sun altitude
Exits shadow 23:38:57 54° 233° (SW) 861 4.5 -23.4°
Maximum altitude 23:39:56 69° 291° (WNW) 757 4.4 -23.4°
Drops below altitude 10° 23:44:51 10° 16° (NNE) 2,183 7.8 -23.5°
Sets 23:47:12 0° 19° (NNE) 3,104 8.8 -23.5°
